Location: Kernascl�den
(48.0062°N, 3.3198°W)
Time: 12:42:07
(UTC+00:00)

H-2A R/B - Pass Details

Date: 21 January 2021
Orbit: 576 x 656 km, 98.5° (Epoch: 06 March)

Event Time Altitude Azimuth Distance (km) Brightness Sun altitude
Rises 18:44:16 0° 5° (N) 2,979 5.4 -17.7°
Reaches altitude 10° 18:46:45 10° 354° (N) 2,054 4.7 -18.1°
Maximum altitude 18:50:31 28° 296° (WNW) 1,216 4.1 -18.8°
Drops below altitude 10° 18:54:13 10° 238° (WSW) 2,006 5.7 -19.4°
Sets 18:56:37 0° 227° (SW) 2,894 6.4 -19.8°
